Location: Ferma
(41.9500°N, 44.5167°E)
Time: 12:09:49
(UTC+00:00)

X-37B - Pass Details

Date: 24 October 2021
Orbit: 329 x 342 km, 45.0° (Epoch: 06 December)

Event Time Altitude Azimuth Distance (km) Brightness Sun altitude
Rises 14:34:55 0° 287° (WNW) 2,121 5.6 -5.9°
Reaches altitude 10° 14:36:57 10° 292° (WNW) 1,284 4.2 -6.3°
Maximum altitude 14:39:47 52° 11° (N) 433 0.7 -6.8°
Drops below altitude 10° 14:42:36 10° 89° (E) 1,286 2.5 -7.3°
Enters shadow 14:42:39 10° 89° (E) 1,302 2.6 -7.3°
